Curacao, Curacao

11:18 PM AST on July 20, 2017 (GMT -0400)
Willemstad-Hato International

Weather History for TNCC - November, 2012

Change the Weather History Date:

Tuesday, November 6, 2012

  Actual Average Record
Temperature  
Mean Temperature 82 °F -  
Max Temperature 86 °F 86 °F 93 °F (1998)
Min Temperature 77 °F 76 °F 75 °F (2014)
Cooling Degree Days 16    
Growing Degree Days 32 (Base 50)    
Moisture  
Dew Point 74 °F    
Average Humidity 80    
Maximum Humidity 89    
Minimum Humidity 66    
Precipitation  
Precipitation 0.00 in 0.13 in - ()
Sea Level Pressure  
Sea Level Pressure 29.84 in    
Wind  
Wind Speed 9 mph ()    
Max Wind Speed 14 mph    
Max Gust Speed -    
Visibility 6.2 miles    
Events      
Averages and records for this station are not official NWS values.
T = Trace of Precipitation, MM = Missing Value Source: Averaged Metar Reports

Daily Weather History Graph

Daily Weather History Graph

Search for Another Location

Airport or City:

Trip Planner

Search our weather history database for the weather conditions in past years. The results will help you decide how hot, cold, wet, or windy it might be!

Date:

Astronomy

Nov. 06, 2012 Rise Set
Actual Time 6:30 AM AST 6:08 PM AST
Civil Twilight 6:08 AM AST 6:30 PM AST
Nautical Twilight 5:42 AM AST 6:55 PM AST
Astronomical Twilight 5:17 AM AST 7:21 PM AST
Moon No Moon Rise 12:28 PM AST (11/6)
Length of Visible Light 12h 22m
Length of Day
11h 38m
Waning Gibbous, 54% of the Moon is Illuminated
Nov 6
Waning Gibbous
Nov 6
Last Quarter
Nov 13
New
Nov 20
First Quarter
Nov 28
Full

Hourly Weather History & Observations

Time (AST) Temp. Heat Index Dew Point Humidity Pressure Visibility Wind Dir Wind Speed Gust Speed Precip Events Conditions
12:00 AM 78.8 °F - 73.4 °F 83% 29.86 in 6.2 mi ESE 9.2 mph - N/A   Partly Cloudy
1:00 AM 78.8 °F - 73.4 °F 83% 29.86 in 6.2 mi ESE 8.1 mph - N/A   Partly Cloudy
2:00 AM 80 °F - 73 °F 75% 29.84 in 25 mi ESE 10.4 mph - -   Scattered Clouds
2:00 AM 78.8 °F - 73.4 °F 83% 29.83 in 6.2 mi ESE 10.4 mph - N/A   Partly Cloudy
3:00 AM 80.6 °F 85.4 °F 73.4 °F 79% 29.83 in 6.2 mi East 11.5 mph - N/A   Partly Cloudy
4:00 AM 77.0 °F - 73.4 °F 89% 29.83 in 6.2 mi SE 5.8 mph - N/A   Partly Cloudy
5:00 AM 77 °F - 73 °F 83% 29.84 in 25 mi SE 5.8 mph - -   Scattered Clouds
5:00 AM 77.0 °F - 73.4 °F 89% 29.83 in 6.2 mi ESE 6.9 mph - N/A   Partly Cloudy
6:00 AM 78.8 °F - 73.4 °F 83% 29.83 in 6.2 mi ESE 9.2 mph - N/A   Partly Cloudy
7:00 AM 78.8 °F - 73.4 °F 83% 29.86 in 6.2 mi ESE 11.5 mph - N/A   Partly Cloudy
8:00 AM 82.4 °F 89.5 °F 75.2 °F 79% 29.89 in 6.2 mi ESE 11.5 mph - N/A   Partly Cloudy
10:00 AM 84.2 °F 92.3 °F 75.2 °F 74% 29.89 in 6.2 mi East 12.7 mph - N/A   Partly Cloudy
11:00 AM 84.2 °F 94.1 °F 77.0 °F 79% 29.89 in 6.2 mi East 13.8 mph - N/A   Partly Cloudy
12:00 PM 86.0 °F 95.1 °F 75.2 °F 70% 29.86 in 6.2 mi East 12.7 mph - N/A   Partly Cloudy
1:00 PM 84.2 °F 92.3 °F 75.2 °F 74% 29.83 in 6.2 mi East 12.7 mph - N/A   Scattered Clouds
2:00 PM 84 °F - 74 °F 66% 29.82 in 31 mi East 12.7 mph - -   Partly Cloudy
2:00 PM 84.2 °F 92.3 °F 75.2 °F 74% 29.80 in 6.2 mi East 12.7 mph - N/A   Scattered Clouds
3:00 PM 84.2 °F 90.9 °F 73.4 °F 70% 29.80 in 6.2 mi East 13.8 mph - N/A   Scattered Clouds
4:00 PM 82.4 °F 89.5 °F 75.2 °F 79% 29.80 in 6.2 mi East 13.8 mph - N/A   Scattered Clouds
5:00 PM 82.4 °F 89.5 °F 75.2 °F 79% 29.80 in 6.2 mi East 12.7 mph - N/A   Partly Cloudy
6:00 PM 80.6 °F 86.2 °F 75.2 °F 84% 29.80 in 6.2 mi ESE 11.5 mph - N/A   Partly Cloudy
7:00 PM 80.6 °F 86.2 °F 75.2 °F 84% 29.80 in 6.2 mi ESE 10.4 mph - N/A   Partly Cloudy
8:00 PM 80.6 °F 86.2 °F 75.2 °F 84% 29.83 in 6.2 mi East 12.7 mph - N/A   Scattered Clouds
9:00 PM 80.6 °F 86.2 °F 75.2 °F 84% 29.86 in 6.2 mi ESE 11.5 mph - N/A   Scattered Clouds
10:00 PM 80.6 °F 86.2 °F 75.2 °F 84% 29.86 in 6.2 mi ESE 8.1 mph - N/A   Partly Cloudy
11:00 PM 80.6 °F 86.2 °F 75.2 °F 84% 29.86 in 6.2 mi ESE 10.4 mph - N/A   Partly Cloudy